Regional Weather Roundup
Issued by NWS

Home | Current Version | Previous Version | Graphics & Text | Print | Product List | Glossary Off
Versions: 1 2 3 4 5 6 7 8 9 10 11 12 13 14 15 16 17 18 19 20 21 22 23 24 25 26 27

000
ASUS43 KDMX 232007
RWRIA

WEATHER ROUNDUP FOR IOWA
NATIONAL WEATHER SERVICE DES MOINES IA
300 PM CDT WED APR 23 2014

NOTE: "FAIR" INDICATES FEW OR NO CLOUDS BELOW 12,000 FEET WITH NO
SIGNIFICANT WEATHER AND/OR OBSTRUCTIONS TO VISIBILITY.

* - THESE STATIONS ARE NOT NWS STATIONS...THUS NOT UNDER NWS
QUALITY CONTROL.  THEY ALSO DO NOT REPORT WEATHER SUCH
AS PRECIPITATION OR FOG.

IAZ001>003-012>014-020>022-031>034-043>046-232100-
   NORTHWEST IOWA

CITY           SKY/WX    TMP DP  RH WIND       PRES   REMARKS
CARROLL *      PTSUNNY   48  45  87 SE26G35   29.83F
CHEROKEE *     PTSUNNY   55  41  58 SE24G35   29.81R
DENISON *      MOSUNNY   52  43  71 SE29G40   29.73F
LE MARS *      MOSUNNY   61  39  44 SE26G40   29.73F
ORANGE CITY *  MOSUNNY   61  39  44 SE20G33   29.74F
SHELDON *      PTSUNNY   57  39  51 SE35G43   29.75F
SIOUX CITY     PTSUNNY   64  41  42 S31G41    29.70S
SPENCER        CLOUDY    49  38  65 SE28G37   29.84F
STORM LAKE *   PTSUNNY   52  39  62 SE29G41   29.80S
$$

IAZ055>058-069>071-079>083-090>094-232100-
   SOUTHWEST IOWA

CITY           SKY/WX    TMP DP  RH WIND       PRES   REMARKS
ATLANTIC *     LGT RAIN  52  43  71 SE14G23   29.81F
AUDUBON *      RAIN      46  39  76 SE20G26   29.83S
CLARINDA *     CLOUDY    52  45  76 SE20G33   29.81F
COUNCIL BLFS * MOSUNNY   55  46  71 SE29G38   29.69F
CRESTON *      MOSUNNY   52  43  71 SE29      29.87F
HARLAN  *      CLOUDY    48  43  81 SE20G35   29.80F
LAMONI         CLOUDY    53  41  63 SE13      29.90F
RED OAK *      PTSUNNY   55  43  62 SE18G30   29.78F
SHENANDOAH *   PTSUNNY   52  46  82 SE36G43   29.72F
$$

IAZ047>049-059>061-072>074-084-232100-
   CENTRAL IOWA

CITY           SKY/WX    TMP DP  RH WIND       PRES   REMARKS
AMES           CLOUDY    44  39  82 SE17G28   29.92F
ANKENY *       LGT RAIN  45  41  87 SE18G26   29.93F
CHARITON *     CLOUDY    48  41  76 SE16G22   29.97S
DES MOINES     LGT RAIN  47  40  76 SE22G31   29.93F
GRINNELL*      LGT RAIN  46  39  76 E18G26    29.98F
KNOXVILLE *    CLOUDY    46  41  81 E15       29.95F
MARSHALLTOWN   LGT RAIN  44  39  82 SE20      29.98F
NEWTON *       CLOUDY    45  39  81 E18G25    29.98F
PELLA *        LGT RAIN  46  39  76 SE15      30.01R
PERRY *        LGT RAIN  45  41  87 E21G26    29.89S
$$

IAZ004>006-015-016-023>025-035-036-232100-
   NORTH CENTRAL IOWA

CITY           SKY/WX    TMP DP  RH WIND       PRES   REMARKS
ALGONA *       CLOUDY    46  39  76 SE23G33   29.89F
CLARION *      LGT RAIN  45  39  81 SE29G36   29.90F
ESTHERVILLE    CLOUDY    47  38  71 SE29G38   29.86F
FORT DODGE *   CLOUDY    46  37  71 SE23      29.89F
MASON CITY     LGT RAIN  47  36  65 SE24G32   29.96F
FOREST CITY *  DRIZZLE   45  36  70 SE20G29   29.94F
IOWA FALLS *   LGT RAIN  45  37  76 SE18G33   29.98R
$$

IAZ007>011-017>019-026>030-037>042-050>054-066-232100-
   NORTHEAST IOWA

CITY           SKY/WX    TMP DP  RH WIND       PRES   REMARKS
CEDAR RAPIDS   LGT RAIN  48  35  60 SE10      30.07R
CHARLES CITY * PTSUNNY   46  34  61 SE17G24   30.01F
CLINTON *      PTSUNNY   54  28  37 E10       30.12F
DECORAH *      PTSUNNY   50  28  43 SE10      30.06F
DUBUQUE        CLOUDY    48  29  47 SE10      30.11S
MONTICELLO *   PTSUNNY   50  28  43 E13       30.10S
OELWEIN *      MOSUNNY  N/A N/A N/A SE18      30.07F
WATERLOO       LGT RAIN  47  37  68 SE17      30.03F
$$

IAZ064-065-067-068-078-232100-
   EAST CENTRAL IOWA

CITY           SKY/WX    TMP DP  RH WIND       PRES   REMARKS
DAVENPORT      PTSUNNY   55  28  35 E14       30.10S
IOWA CITY      LGT RAIN  50  35  56 SE9       30.09R
MT. PLEASANT * DRIZZLE   54  32  43 SE7       30.07S
MUSCATINE *    PTSUNNY   57  30  35 SE9       30.07S
QUAD CITIES    CLOUDY    56  25  30 E12G17    30.08F
$$

IAZ062-063-075>077-085>089-095>099-232100-
   SOUTHEAST IOWA

CITY           SKY/WX    TMP DP  RH WIND       PRES   REMARKS
BURLINGTON     LGT RAIN  56  32  40 SE9       30.05S
FAIRFIELD *    LGT RAIN  48  39  71 SE10      30.05F
FORT MADISON * PTSUNNY   55  34  44 SE7       30.07R
KEOKUK *       PTSUNNY   57  32  38 E13       30.02F
OSKALOOSA *    LGT RAIN  46  41  81 E17       29.99F
CENTERVILLE *  MOSUNNY   50  41  71 E16       29.99F
OTTUMWA        LGT RAIN  47  39  74 E21       29.98F
WASHINGTON *   LGT RAIN  50  39  66 SE7       30.07R
$$

ABBREVIATIONS USED IN REMARKS
   TC - TEMPERATURES IN CELSIUS
  WCI - WIND CHILL INDEX
   HX - HEAT INDEX
  VSB - VISIBILITY
$$




USA.gov is the U.S. government's official web portal to all federal, state and local government web resources and services.